Regional Weather Roundup
Issued by NWS

Home | Current Version | Previous Version | Graphics & Text | Print | Product List | Glossary On
Versions: 1 2 3 4 5 6 7 8 9 10 11 12 13 14 15 16 17 18 19 20 21 22 23 24 25 26 27 28 29 30 31 32 33 34 35 36 37 38 39 40 41 42 43 44 45 46 47 48 49 50
000
ASUS45 KTFX 220510
RWRMT
MONTANA REGIONAL WEATHER ROUNDUP
NATIONAL WEATHER SERVICE GREAT FALLS MT
1100 PM MDT FRI JUL 21 2017

NOTE: "FAIR" INDICATES FEW OR NO CLOUDS BELOW 12000 FEET WITH NO
SIGNIFICANT WEATHER AND/OR OBSTRUCTIONS TO VISIBILITY.

MTZ001>007-043-220600-
WEST OF THE DIVIDE

CITY           SKY/WX    TMP DP  RH WIND       PRES   REMARKS
KALISPELL      PTCLDY    65  38  36 CALM      30.09R
MISSOULA       CLEAR     65  34  31 N6        30.11R
BUTTE          CLEAR     65  29  25 NW9       30.21R
MULLAN PASS    CLEAR     54  34  46 NW6       30.26R
ANACONDA         N/A     64  30  27 CALM      30.19R
DEER LODGE       N/A     66  30  26 NW13      30.19R
EUREKA           N/A     70  43  37 MISG      30.08S
HAMILTON         N/A     66  36  32 SW3       30.13R
LIBBY            N/A     64  43  45 S3        30.08S
PLAINS           N/A     63  45  51 CALM      30.10R
$$

MTZ008-052>055-220600-
SOUTHWEST MONTANA

CITY           SKY/WX    TMP DP  RH WIND       PRES   REMARKS
BOZEMAN        CLEAR     65  32  29 SW9       30.13R
DILLON         CLEAR     64  31  28 E10       30.16R
W YELLOWSTONE  CLEAR     55  32  41 CALM      30.26R
ENNIS          CLEAR     68  23  18 N13       30.20S
THREE FORKS      N/A     63  41  44 CALM      30.10R
$$

MTZ009-010-012-014-046-048-049-054-220600-
EAST SLOPES AND CENTRAL MONTANA

CITY           SKY/WX    TMP DP  RH WIND       PRES   REMARKS
CUT BANK       PTCLDY    59  42  53 NE8       30.09R
GREAT FALLS    CLEAR     65  29  25 NW3       30.08R
HELENA         CLEAR     71  33  24 E3        30.12R
CHOTEAU          N/A     63  32  31 NW9       30.11R
$$

MTZ011-013-016-021-045-047-050-051-220600-
NORTH CENTRAL MONTANA

CITY           SKY/WX    TMP DP  RH WIND       PRES   REMARKS
HAVRE          PTCLDY    69  42  37 N15       30.00R
LEWISTOWN      CLEAR     62  27  26 S6        30.10R
N BAR RANCH      N/A     64  25  22 NW10      30.12S
CHINOOK          N/A     70  41  35 N5        30.00R
$$

MTZ017>020-022>027-061-062-220600-
NORTHEAST MONTANA

CITY           SKY/WX    TMP DP  RH WIND       PRES   REMARKS
GLASGOW        CLEAR     70  34  26 N12       29.94R
JORDAN           N/A     65  27  23 CALM      29.96R
SIDNEY         CLEAR     69  37  30 NW8       29.90R
WOLF POINT     CLEAR     66  35  31 W3        29.91R
MALTA          CLEAR     68  37  32 N8        29.96S
PLENTYWOOD       N/A     64  46  52 CALM      29.92R
POPLAR           N/A     64  39  39 N6        29.91R
SCOBEY           N/A     62  43  49 CALM      29.94R
$$

MTZ028>42-056>058-220600-
SOUTHCENTRAL AND SOUTHEAST MONTANA

CITY           SKY/WX    TMP DP  RH WIND       PRES   REMARKS
BAKER          CLEAR     63  38  39 NW3       29.96S
BILLINGS       CLEAR     75  25  15 NE7       30.03R
LIVINGSTON     CLEAR     69  30  23 SW7       30.13R
MILES CITY     CLEAR     71  26  18 NW7       29.94S
BIG TIMBER     CLEAR     73  28  19 SE6       30.13R
EKALAKA          N/A     73  28  19 SE2       29.98R
FORSYTH          N/A     73  28  19 CALM      29.96R
LAUREL           N/A     74  26  16 CALM      30.03S
$$

REGIONAL REPORTS...DAKOTAS

CITY           SKY/WX    TMP DP  RH WIND       PRES   REMARKS
WILLISTON      CLEAR     70  46  42 E3        29.89R
MINOT          CLEAR     65  62  90 CALM      29.85R
DICKINSON      CLEAR     68  40  35 NW9       29.89S
BEACH          CLOUDY    57  50  77 CALM      29.97S
CROSBY           N/A     61  46  59 W8        29.89R
TIOGA            N/A     70  45  40 N10       29.90R
WATFORD CITY     N/A     61  48  63 CALM      29.89R
BISMARCK       CLOUDY    65  61  87 W5        29.84F
GRAND FORKS    PTCLDY    72  72 100 CALM      29.75R
FARGO          CLOUDY    73  68  84 S9        29.76F
BUFFALO SD       N/A     75  38  26 N10       29.88F
RAPID CITY     MOCLDY    74  43  32 N10       29.94F
$$

REGIONAL REPORTS...WYOMING/IDAHO/WASHINGTON

CITY           SKY/WX    TMP DP  RH WIND       PRES   REMARKS
GILLETTE       CLEAR     65  38  36 S3        30.05S
SHERIDAN       CLEAR     66  44  45 CALM      30.04S
BUFFALO WY     CLEAR     68  38  33 W7        30.11F
CODY           CLEAR     70  36  28 CALM      30.14S
YELLOWSTONE LA   N/A     50  38  63 CALM      30.37R
IDAHO FALLS    CLEAR     69  38  32 SW9       30.09R
BOISE          CLEAR     77  41  27 SW5       30.00R
SPOKANE        PTCLDY    72  37  28 SW6       30.09R
$$

REGIONAL REPORTS...ALBERTA

CITY           SKY/WX    TMP DP  RH WIND       PRES   REMARKS
EDMONTON       CLEAR     59  57  94 W5        29.95R
CALGARY        MOCLDY    63  41  45 SW3       30.06R
LETHBRIDGE     CLEAR     55  45  67 SE7       30.06R
MEDICINE HAT   CLEAR     63  50  63 W6        30.00R
WATERTON GATE    N/A     66  37  34 W10         N/A
CARDSTON         N/A     55  45  67 E3          N/A
MILK RIVER       N/A     55  45  67 CALM        N/A
ONEFOUR          N/A     61  43  51 N13         N/A
$$

REGIONAL REPORTS...SASKATCHEWAN

CITY           SKY/WX    TMP DP  RH WIND       PRES   REMARKS
SWIFT CURRENT  CLOUDY    64  46  52 W12       29.95R
SASKATOON      MOCLDY    55  55 100 W5        29.89F
CYPRESS HILLS    N/A     55  43  62 W7          N/A
ROCKGLEN         N/A     59  43  55 NW5         N/A
ASSINIBOIA       N/A     55  55 100 SW1         N/A
$$



USA.gov is the U.S. government's official web portal to all federal, state and local government web resources and services.